| time (UTC) | temp C | wind direction | speed KPH | gust KPH | rain 1hr cm | rain 24hr cm | rain mn cm | humidity % | barometer mb |
| 20260508183338 | 20 | 180 | 3.2 | 4.8 | 0.00 | 0.00 | 0.00 | 35 | 1024.7 |
| 20260508182736 | 20 | 224 | 6.4 | 6.4 | 0.00 | 0.00 | 0.00 | 37 | 1024.7 |
| 20260508181532 | 21 | 102 | 4.8 | 4.8 | 0.00 | 0.00 | 0.00 | 36 | 1025.0 |
| 20260508180921 | 20 | 57 | 0.0 | 0.0 | 0.00 | 0.00 | 0.00 | 34 | 1025.0 |
| 20260508180349 | 18 | 109 | 0.0 | 1.6 | 0.00 | 0.00 | 0.00 | 38 | 1025.0 |
| 20260508175740 | 20 | 116 | 1.6 | 1.6 | 0.00 | 0.00 | 0.00 | 36 | 1025.3 |
| 20260508175143 | 20 | 330 | 3.2 | 3.2 | 0.00 | 0.00 | 0.00 | 33 | 1025.3 |
| 20260508174511 | 21 | 45 | 1.6 | 1.6 | 0.00 | 0.00 | 0.00 | 33 | 1025.3 |
| 20260508173923 | 20 | 126 | 1.6 | 3.2 | 0.00 | 0.00 | 0.00 | 35 | 1025.0 |
| 20260508173320 | 19 | 68 | 3.2 | 3.2 | 0.00 | 0.00 | 0.00 | 36 | 1025.3 |
| 20260508172740 | 18 | 106 | 0.0 | 0.0 | 0.00 | 0.00 | 0.00 | 37 | 1025.7 |
| 20260508172148 | 18 | 117 | 3.2 | 4.8 | 0.00 | 0.00 | 0.00 | 38 | 1025.7 |
| 20260508170941 | 18 | 142 | 3.2 | 3.2 | 0.00 | 0.00 | 0.00 | 36 | 1025.7 |
| 20260508170314 | 18 | 157 | 3.2 | 3.2 | 0.00 | 0.00 | 0.00 | 42 | 1026.0 |
| 20260508165709 | 17 | 84 | 0.0 | 1.6 | 0.00 | 0.00 | 0.00 | 42 | 1026.0 |
| 20260508165120 | 17 | 106 | 1.6 | 1.6 | 0.00 | 0.00 | 0.00 | 43 | 1026.4 |
| 20260508164533 | 17 | 138 | 3.2 | 3.2 | 0.00 | 0.00 | 0.00 | 40 | 1026.4 |
| 20260508163331 | 18 | 106 | 0.0 | 0.0 | 0.00 | 0.00 | 0.00 | 46 | 1026.7 |
| 20260508162723 | 18 | 122 | 0.0 | 0.0 | 0.00 | 0.00 | 0.00 | 40 | 1026.7 |
| 20260508162130 | 17 | 94 | 0.0 | 1.6 | 0.00 | 0.00 | 0.00 | 46 | 1026.7 |
| 20260508161515 | 17 | 92 | 4.8 | 6.4 | 0.00 | 0.00 | 0.00 | 42 | 1026.7 |
| 20260508160931 | 18 | 121 | 1.6 | 1.6 | 0.00 | 0.00 | 0.00 | 47 | 1026.7 |
| 20260508160338 | 17 | 66 | 1.6 | 1.6 | 0.00 | 0.00 | 0.00 | 42 | 1026.7 |
| 20260508155110 | 17 | 236 | 8.0 | 11.3 | 0.00 | 0.00 | 0.00 | 49 | 1027.0 |
| 20260508154521 | 18 | 104 | 1.6 | 3.2 | 0.00 | 0.00 | 0.00 | 44 | 1027.0 |
| 20260508153937 | 17 | 88 | 1.6 | 1.6 | 0.00 | 0.00 | 0.00 | 51 | 1027.0 |
| 20260508153342 | 15 | 74 | 1.6 | 1.6 | 0.00 | 0.00 | 0.00 | 54 | 1027.4 |
| 20260508152746 | 15 | 196 | 4.8 | 4.8 | 0.00 | 0.00 | 0.00 | 53 | 1027.4 |
| 20260508151536 | 15 | 114 | 1.6 | 3.2 | 0.00 | 0.00 | 0.00 | 52 | 1027.0 |
| 20260508150945 | 16 | 108 | 3.2 | 3.2 | 0.00 | 0.00 | 0.00 | 43 | 1027.7 |
| 20260508145746 | 15 | 106 | 0.0 | 0.0 | 0.00 | 0.00 | 0.00 | 60 | 1027.4 |
| 20260508145148 | 15 | 90 | 3.2 | 4.8 | 0.00 | 0.00 | 0.00 | 61 | 1027.4 |
| 20260508143942 | 13 | 149 | 1.6 | 3.2 | 0.00 | 0.00 | 0.00 | 63 | 1027.7 |
| 20260508142727 | 11 | 139 | 1.6 | 1.6 | 0.00 | 0.00 | 0.00 | 75 | 1027.7 |
| 20260508142149 | 11 | 154 | 3.2 | 3.2 | 0.00 | 0.00 | 0.00 | 77 | 1027.7 |
| 20260508141518 | 11 | 133 | 1.6 | 1.6 | 0.00 | 0.00 | 0.00 | 83 | 1027.7 |
| 20260508140936 | 11 | 136 | 1.6 | 3.2 | 0.00 | 0.00 | 0.00 | 81 | 1027.7 |
| 20260508135748 | 10 | 90 | 0.0 | 0.0 | 0.00 | 0.00 | 0.00 | 85 | 1027.7 |
| 20260508135146 | 8 | 99 | 1.6 | 1.6 | 0.00 | 0.00 | 0.00 | 91 | 1027.4 |
| 20260508134522 | 7 | 95 | 0.0 | 0.0 | 0.00 | 0.00 | 0.00 | 96 | 1027.7 |
| 20260508133916 | 6 | 95 | 1.6 | 1.6 | 0.00 | 0.00 | 0.00 | 99 | 1027.7 |
| 20260508133312 | 6 | 108 | 0.0 | 0.0 | 0.00 | 0.00 | 0.00 | 99 | 1027.7 |
| 20260508132726 | 5 | 108 | 0.0 | 0.0 | 0.00 | 0.00 | 0.00 | 99 | 1027.7 |
| 20260508132122 | 6 | 95 | 1.6 | 1.6 | 0.00 | 0.00 | 0.00 | 99 | 1027.7 |
| 20260508130308 | 5 | 87 | 0.0 | 0.0 | 0.00 | 0.00 | 0.00 | 99 | 1027.7 |
| 20260508125126 | 5 | 129 | 0.0 | 1.6 | 0.00 | 0.00 | 0.00 | 99 | 1027.7 |
| 20260508123936 | 4 | 134 | 1.6 | 1.6 | 0.00 | 0.00 | 0.00 | 99 | 1027.7 |
| 20260508123350 | 4 | 124 | 0.0 | 0.0 | 0.00 | 0.00 | 0.00 | 99 | 1027.7 |
| 20260508122731 | 4 | 124 | 0.0 | 1.6 | 0.00 | 0.00 | 0.00 | 99 | 1027.7 |
| 20260508122120 | 4 | 124 | 0.0 | 0.0 | 0.00 | 0.00 | 0.00 | 99 | 1027.7 |
| 20260508121537 | 4 | 124 | 0.0 | 0.0 | 0.00 | 0.00 | 0.00 | 99 | 1027.7 |
| 20260508120920 | 3 | 124 | 0.0 | 0.0 | 0.00 | 0.00 | 0.00 | 99 | 1027.7 |
| 20260508115710 | 4 | 125 | 0.0 | 0.0 | 0.00 | 0.00 | 0.00 | 99 | 1027.7 |
| 20260508115148 | 4 | 117 | 0.0 | 0.0 | 0.00 | 0.00 | 0.00 | 99 | 1027.4 |
| 20260508114519 | 3 | 117 | 0.0 | 0.0 | 0.00 | 0.00 | 0.00 | 99 | 1027.0 |
| 20260508113930 | 3 | 117 | 0.0 | 0.0 | 0.00 | 0.00 | 0.00 | 99 | 1027.4 |
| 20260508113316 | 3 | 117 | 0.0 | 0.0 | 0.00 | 0.00 | 0.00 | 99 | 1027.4 |
| 20260508112719 | 3 | 128 | 0.0 | 0.0 | 0.00 | 0.00 | 0.00 | 99 | 1027.4 |
| 20260508112143 | 3 | 133 | 0.0 | 1.6 | 0.00 | 0.00 | 0.00 | 99 | 1027.4 |
| 20260508111542 | 3 | 128 | 0.0 | 0.0 | 0.00 | 0.00 | 0.00 | 99 | 1027.0 |
| 20260508110922 | 3 | 128 | 0.0 | 0.0 | 0.00 | 0.00 | 0.00 | 99 | 1027.0 |
| 20260508110326 | 3 | 128 | 0.0 | 0.0 | 0.00 | 0.00 | 0.00 | 99 | 1027.0 |
| 20260508105142 | 3 | 128 | 0.0 | 0.0 | 0.00 | 0.00 | 0.00 | 99 | 1027.0 |
| 20260508103936 | 3 | 128 | 0.0 | 0.0 | 0.00 | 0.00 | 0.00 | 99 | 1026.7 |
| 20260508103338 | 3 | 128 | 0.0 | 0.0 | 0.00 | 0.00 | 0.00 | 99 | 1026.7 |
| 20260508102715 | 3 | 128 | 0.0 | 0.0 | 0.00 | 0.00 | 0.00 | 99 | 1026.7 |
| 20260508102115 | 3 | 128 | 0.0 | 0.0 | 0.00 | 0.00 | 0.00 | 99 | 1026.7 |
| 20260508101512 | 3 | 128 | 0.0 | 0.0 | 0.00 | 0.00 | 0.00 | 99 | 1026.7 |
| 20260508100938 | 4 | 128 | 0.0 | 0.0 | 0.00 | 0.00 | 0.00 | 99 | 1026.7 |
| 20260508100331 | 4 | 128 | 0.0 | 0.0 | 0.00 | 0.00 | 0.00 | 99 | 1026.7 |
| 20260508095748 | 4 | 128 | 0.0 | 0.0 | 0.00 | 0.00 | 0.00 | 99 | 1026.7 |
| 20260508095130 | 4 | 128 | 0.0 | 0.0 | 0.00 | 0.00 | 0.00 | 99 | 1026.7 |
| 20260508094522 | 4 | 128 | 0.0 | 0.0 | 0.00 | 0.00 | 0.00 | 99 | 1026.7 |
| 20260508093943 | 3 | 128 | 0.0 | 0.0 | 0.00 | 0.00 | 0.00 | 99 | 1026.7 |
| 20260508092722 | 4 | 128 | 0.0 | 0.0 | 0.00 | 0.00 | 0.00 | 99 | 1026.7 |
| 20260508092142 | 4 | 128 | 0.0 | 0.0 | 0.00 | 0.00 | 0.00 | 99 | 1026.7 |
| 20260508091528 | 4 | 128 | 0.0 | 0.0 | 0.00 | 0.00 | 0.00 | 99 | 1026.7 |
| 20260508090932 | 4 | 129 | 0.0 | 0.0 | 0.00 | 0.00 | 0.00 | 99 | 1026.7 |
| 20260508085139 | 4 | 111 | 0.0 | 0.0 | 0.00 | 0.00 | 0.00 | 99 | 1026.7 |
| 20260508084547 | 5 | 111 | 0.0 | 1.6 | 0.00 | 0.00 | 0.00 | 99 | 1026.7 |
| 20260508083912 | 5 | 111 | 0.0 | 0.0 | 0.00 | 0.00 | 0.00 | 99 | 1026.4 |
| 20260508083313 | 5 | 111 | 0.0 | 0.0 | 0.00 | 0.00 | 0.00 | 99 | 1026.4 |
| 20260508082735 | 5 | 111 | 0.0 | 0.0 | 0.00 | 0.00 | 0.00 | 99 | 1026.4 |
| 20260508082150 | 5 | 110 | 0.0 | 0.0 | 0.00 | 0.00 | 0.00 | 99 | 1026.0 |
| 20260508081537 | 5 | 110 | 0.0 | 0.0 | 0.00 | 0.00 | 0.00 | 99 | 1026.0 |
| 20260508080328 | 5 | 110 | 0.0 | 0.0 | 0.00 | 0.00 | 0.00 | 99 | 1026.4 |
| 20260508075731 | 5 | 110 | 0.0 | 0.0 | 0.00 | 0.00 | 0.00 | 99 | 1026.4 |
| 20260508075120 | 5 | 110 | 0.0 | 0.0 | 0.00 | 0.00 | 0.00 | 99 | 1026.4 |
| 20260508074529 | 5 | 110 | 0.0 | 0.0 | 0.00 | 0.00 | 0.00 | 99 | 1026.4 |
| 20260508073327 | 5 | 110 | 0.0 | 0.0 | 0.00 | 0.00 | 0.00 | 99 | 1026.4 |
| 20260508072733 | 5 | 110 | 0.0 | 0.0 | 0.00 | 0.00 | 0.00 | 99 | 1026.0 |
| 20260508072115 | 5 | 110 | 0.0 | 0.0 | 0.00 | 0.00 | 0.00 | 99 | 1026.0 |
| 20260508071537 | 5 | 110 | 0.0 | 0.0 | 0.00 | 0.00 | 0.00 | 99 | 1026.0 |
| 20260508070951 | 5 | 110 | 0.0 | 0.0 | 0.00 | 0.00 | 0.00 | 99 | 1026.0 |
| 20260508070338 | 5 | 110 | 0.0 | 0.0 | 0.00 | 0.00 | 0.00 | 99 | 1026.0 |
| 20260508065738 | 5 | 110 | 0.0 | 0.0 | 0.00 | 0.00 | 0.00 | 99 | 1025.7 |
| 20260508065133 | 5 | 110 | 0.0 | 0.0 | 0.00 | 0.00 | 0.00 | 99 | 1026.0 |
| 20260508064520 | 5 | 110 | 0.0 | 0.0 | 0.00 | 0.00 | 0.00 | 99 | 1026.0 |
| 20260508063925 | 5 | 110 | 0.0 | 0.0 | 0.00 | 0.00 | 0.00 | 99 | 1026.0 |
| 20260508063318 | 5 | 110 | 0.0 | 0.0 | 0.00 | 0.00 | 0.00 | 99 | 1026.0 |
| 20260508062742 | 5 | 110 | 0.0 | 0.0 | 0.00 | 0.00 | 0.00 | 99 | 1026.0 |
| 20260508062146 | 5 | 110 | 0.0 | 0.0 | 0.00 | 0.00 | 0.00 | 99 | 1026.0 |
| 20260508061530 | 5 | 110 | 0.0 | 1.6 | 0.00 | 0.00 | 0.00 | 99 | 1026.0 |
| 20260508060909 | 5 | 110 | 0.0 | 0.0 | 0.00 | 0.00 | 0.00 | 99 | 1026.0 |
| 20260508060341 | 5 | 110 | 0.0 | 0.0 | 0.00 | 0.00 | 0.00 | 99 | 1026.4 |
| 20260508055751 | 5 | 110 | 0.0 | 0.0 | 0.00 | 0.00 | 0.00 | 99 | 1026.4 |
| 20260508055141 | 5 | 110 | 0.0 | 0.0 | 0.00 | 0.00 | 0.00 | 99 | 1026.4 |
| 20260508054544 | 5 | 110 | 0.0 | 0.0 | 0.00 | 0.00 | 0.00 | 99 | 1026.4 |
| 20260508052738 | 5 | 110 | 0.0 | 0.0 | 0.00 | 0.00 | 0.00 | 99 | 1026.7 |
| 20260508052132 | 5 | 110 | 0.0 | 0.0 | 0.00 | 0.00 | 0.00 | 99 | 1026.4 |
| 20260508051526 | 5 | 110 | 0.0 | 0.0 | 0.00 | 0.00 | 0.00 | 99 | 1026.0 |
| 20260508050945 | 5 | 110 | 0.0 | 0.0 | 0.00 | 0.00 | 0.00 | 99 | 1026.0 |
| 20260508050309 | 6 | 110 | 0.0 | 0.0 | 0.00 | 0.00 | 0.00 | 99 | 1026.0 |
| 20260508045724 | 5 | 110 | 0.0 | 0.0 | 0.00 | 0.00 | 0.00 | 99 | 1026.4 |
| 20260508045128 | 6 | 110 | 0.0 | 0.0 | 0.00 | 0.00 | 0.00 | 99 | 1026.0 |
| 20260508044542 | 6 | 110 | 0.0 | 0.0 | 0.00 | 0.00 | 0.00 | 99 | 1026.4 |
| 20260508043936 | 6 | 110 | 0.0 | 0.0 | 0.00 | 0.00 | 0.00 | 99 | 1026.4 |
| 20260508043347 | 6 | 110 | 0.0 | 0.0 | 0.00 | 0.00 | 0.00 | 99 | 1026.0 |
| 20260508042723 | 6 | 110 | 0.0 | 0.0 | 0.00 | 0.00 | 0.00 | 99 | 1026.0 |
| 20260508042141 | 6 | 110 | 0.0 | 0.0 | 0.00 | 0.00 | 0.00 | 99 | 1026.0 |
| 20260508041532 | 6 | 110 | 0.0 | 0.0 | 0.00 | 0.00 | 0.00 | 99 | 1025.3 |
| 20260508040318 | 6 | 110 | 0.0 | 0.0 | 0.00 | 0.00 | 0.03 | 99 | 1025.7 |
| 20260508035120 | 6 | 110 | 0.0 | 0.0 | 0.00 | 0.00 | 0.03 | 99 | 1025.7 |
| 20260508034526 | 6 | 110 | 0.0 | 0.0 | 0.00 | 0.00 | 0.03 | 99 | 1025.7 |
| 20260508033916 | 6 | 110 | 0.0 | 0.0 | 0.00 | 0.00 | 0.03 | 99 | 1025.3 |
| 20260508033321 | 6 | 110 | 0.0 | 0.0 | 0.00 | 0.00 | 0.03 | 99 | 1025.7 |
| 20260508032734 | 6 | 110 | 0.0 | 0.0 | 0.00 | 0.00 | 0.03 | 99 | 1025.7 |
| 20260508032147 | 6 | 110 | 0.0 | 0.0 | 0.00 | 0.00 | 0.03 | 99 | 1025.7 |
| 20260508031526 | 6 | 110 | 0.0 | 0.0 | 0.00 | 0.00 | 0.03 | 99 | 1025.3 |
| 20260508030931 | 6 | 110 | 0.0 | 0.0 | 0.00 | 0.00 | 0.03 | 99 | 1025.7 |
| 20260508030311 | 6 | 110 | 0.0 | 0.0 | 0.00 | 0.00 | 0.03 | 99 | 1025.3 |
| 20260508025719 | 6 | 110 | 0.0 | 0.0 | 0.00 | 0.00 | 0.03 | 99 | 1025.7 |
| 20260508025114 | 6 | 110 | 0.0 | 0.0 | 0.00 | 0.00 | 0.03 | 99 | 1025.3 |
| 20260508024525 | 6 | 110 | 0.0 | 0.0 | 0.00 | 0.00 | 0.03 | 99 | 1025.3 |
| 20260508023946 | 7 | 110 | 0.0 | 0.0 | 0.00 | 0.00 | 0.03 | 99 | 1025.0 |
| 20260508023341 | 7 | 109 | 0.0 | 0.0 | 0.00 | 0.00 | 0.03 | 99 | 1025.3 |
| 20260508022723 | 7 | 110 | 0.0 | 0.0 | 0.00 | 0.00 | 0.03 | 99 | 1025.0 |
| 20260508021515 | 7 | 109 | 0.0 | 0.0 | 0.00 | 0.00 | 0.03 | 99 | 1024.7 |
| 20260508020945 | 7 | 110 | 0.0 | 0.0 | 0.00 | 0.00 | 0.03 | 99 | 1024.7 |
| 20260508020349 | 7 | 109 | 0.0 | 0.0 | 0.00 | 0.00 | 0.03 | 98 | 1024.3 |
| 20260508015738 | 7 | 110 | 0.0 | 0.0 | 0.00 | 0.00 | 0.03 | 98 | 1024.3 |
| 20260508015145 | 7 | 110 | 0.0 | 0.0 | 0.00 | 0.00 | 0.03 | 98 | 1024.3 |
| 20260508014517 | 7 | 110 | 0.0 | 0.0 | 0.00 | 0.00 | 0.03 | 98 | 1024.3 |
| 20260508012725 | 8 | 109 | 0.0 | 0.0 | 0.00 | 0.00 | 0.03 | 97 | 1024.3 |
| 20260508011528 | 8 | 110 | 0.0 | 0.0 | 0.00 | 0.00 | 0.03 | 95 | 1024.0 |
| 20260508010935 | 8 | 109 | 0.0 | 0.0 | 0.00 | 0.00 | 0.03 | 95 | 1024.0 |
| 20260508010349 | 8 | 110 | 0.0 | 0.0 | 0.00 | 0.00 | 0.03 | 94 | 1023.7 |
| 20260508005736 | 9 | 110 | 0.0 | 0.0 | 0.00 | 0.00 | 0.03 | 92 | 1023.7 |
| 20260508003908 | 10 | 109 | 0.0 | 0.0 | 0.00 | 0.00 | 0.03 | 89 | 1023.3 |
| 20260508003340 | 10 | 110 | 0.0 | 0.0 | 0.00 | 0.00 | 0.03 | 88 | 1023.7 |
| 20260508002734 | 10 | 110 | 0.0 | 0.0 | 0.00 | 0.00 | 0.03 | 86 | 1023.7 |
| 20260508002110 | 11 | 110 | 0.0 | 0.0 | 0.00 | 0.00 | 0.03 | 85 | 1023.3 |
| 20260508001532 | 11 | 110 | 0.0 | 0.0 | 0.00 | 0.00 | 0.03 | 85 | 1023.3 |
| 20260508000949 | 11 | 110 | 0.0 | 0.0 | 0.00 | 0.00 | 0.03 | 85 | 1023.3 |
| 20260508000335 | 11 | 110 | 0.0 | 0.0 | 0.00 | 0.00 | 0.03 | 85 | 1023.3 |
| 20260507235747 | 12 | 110 | 0.0 | 0.0 | 0.00 | 0.00 | 0.03 | 84 | 1023.3 |
| 20260507235119 | 12 | 110 | 0.0 | 0.0 | 0.00 | 0.00 | 0.03 | 84 | 1023.3 |
| 20260507234551 | 12 | 110 | 0.0 | 0.0 | 0.00 | 0.00 | 0.03 | 84 | 1023.0 |
| 20260507233938 | 13 | 110 | 0.0 | 0.0 | 0.00 | 0.00 | 0.03 | 85 | 1023.0 |
| 20260507233347 | 13 | 109 | 0.0 | 0.0 | 0.00 | 0.00 | 0.03 | 75 | 1023.0 |
| 20260507231535 | 13 | 125 | 0.0 | 0.0 | 0.00 | 0.00 | 0.03 | 81 | 1023.0 |
| 20260507225744 | 15 | 126 | 0.0 | 1.6 | 0.00 | 0.00 | 0.03 | 69 | 1022.6 |
| 20260507225120 | 15 | 127 | 0.0 | 0.0 | 0.00 | 0.00 | 0.03 | 65 | 1022.6 |
| 20260507224527 | 14 | 122 | 0.0 | 0.0 | 0.00 | 0.00 | 0.03 | 70 | 1023.0 |
| 20260507223918 | 14 | 122 | 0.0 | 0.0 | 0.00 | 0.00 | 0.03 | 71 | 1023.0 |
| 20260507223338 | 15 | 123 | 0.0 | 0.0 | 0.00 | 0.00 | 0.03 | 64 | 1023.0 |
| 20260507222719 | 15 | 120 | 0.0 | 1.6 | 0.00 | 0.00 | 0.03 | 63 | 1023.0 |
| 20260507221516 | 15 | 32 | 3.2 | 3.2 | 0.00 | 0.00 | 0.03 | 57 | 1023.0 |
| 20260507220312 | 16 | 91 | 0.0 | 0.0 | 0.00 | 0.00 | 0.03 | 57 | 1022.6 |
| 20260507215738 | 16 | 110 | 0.0 | 0.0 | 0.00 | 0.00 | 0.03 | 59 | 1022.6 |
| 20260507215144 | 16 | 100 | 1.6 | 1.6 | 0.00 | 0.00 | 0.03 | 60 | 1022.6 |
| 20260507213944 | 15 | 108 | 0.0 | 0.0 | 0.00 | 0.00 | 0.03 | 61 | 1022.6 |
| 20260507212737 | 16 | 115 | 0.0 | 0.0 | 0.00 | 0.00 | 0.03 | 61 | 1022.3 |
| 20260507211532 | 15 | 226 | 4.8 | 6.4 | 0.00 | 0.00 | 0.03 | 58 | 1022.3 |
| 20260507210928 | 15 | 90 | 0.0 | 1.6 | 0.00 | 0.00 | 0.03 | 60 | 1022.6 |
| 20260507210344 | 16 | 118 | 1.6 | 1.6 | 0.00 | 0.00 | 0.03 | 59 | 1022.6 |
| 20260507204547 | 15 | 96 | 1.6 | 1.6 | 0.00 | 0.00 | 0.03 | 61 | 1022.3 |
| 20260507202737 | 14 | 118 | 0.0 | 0.0 | 0.00 | 0.00 | 0.03 | 65 | 1022.6 |
| 20260507202152 | 14 | 117 | 0.0 | 0.0 | 0.00 | 0.00 | 0.03 | 67 | 1022.6 |
| 20260507201538 | 14 | 111 | 0.0 | 0.0 | 0.00 | 0.00 | 0.03 | 70 | 1022.6 |
| 20260507200938 | 15 | 133 | 3.2 | 4.8 | 0.00 | 0.00 | 0.03 | 66 | 1022.3 |
| 20260507195752 | 15 | 154 | 6.4 | 6.4 | 0.00 | 0.00 | 0.03 | 61 | 1022.6 |
| 20260507195151 | 14 | 82 | 0.0 | 0.0 | 0.00 | 0.00 | 0.03 | 70 | 1022.6 |
| 20260507194514 | 14 | 98 | 1.6 | 1.6 | 0.00 | 0.00 | 0.03 | 66 | 1023.0 |
| 20260507193951 | 14 | 128 | 1.6 | 1.6 | 0.00 | 0.00 | 0.03 | 64 | 1023.0 |
| 20260507192732 | 13 | 131 | 0.0 | 0.0 | 0.00 | 0.00 | 0.03 | 70 | 1023.3 |
| 20260507192146 | 13 | 138 | 1.6 | 3.2 | 0.00 | 0.00 | 0.03 | 70 | 1023.3 |
| 20260507191535 | 12 | 128 | 0.0 | 0.0 | 0.00 | 0.00 | 0.03 | 69 | 1023.3 |
| 20260507190936 | 13 | 107 | 1.6 | 1.6 | 0.00 | 0.00 | 0.03 | 70 | 1023.3 |
| 20260507185724 | 14 | 126 | 0.0 | 1.6 | 0.00 | 0.00 | 0.03 | 66 | 1023.3 |
| 20260507185150 | 15 | 129 | 4.8 | 4.8 | 0.00 | 0.00 | 0.03 | 64 | 1023.3 |
| 20260507184549 | 13 | 117 | 1.6 | 1.6 | 0.00 | 0.00 | 0.03 | 69 | 1023.3 |
| 20260507183952 | 13 | 214 | 3.2 | 3.2 | 0.00 | 0.00 | 0.03 | 70 | 1023.3 |